sat.trackr.live / text

‹ back to catalog

ONEWEB-0026

NORAD 45139 · 2020-008J

PAYLOAD ACTIVE UNKNOWN

§ Identity

Operator
Country
UK
Launch date
2020-02-06
Launch site
TYMSC
Launch vehicle
Mass (kg)
RCS (m²)

Purposes: comms

External: N2YO · Heavens-Above · Gunter

§ Orbital elements

Epoch: 2026-09-20T01:43:30.565920Z

Period
109.80 min
Inclination
87.8971°
Eccentricity
0.0001643
Mean motion
13.11415707 rev/d
Perigee alt
1,216.4 km
Apogee alt
1,218.9 km
Semi-major
7,595.8 km
B*
-1.2677e-3
RAAN
2.2051°
Arg perigee
100.2225°
Mean anomaly
259.9088°
Rev number
32,354

§ Raw data

ONEWEB-00261 45139U 20008J   26263.07188155 -.00000437  00000+0 -12677-2 0  99962 45139  87.8971   2.2051 0001643 100.2225 259.9088 13.11415707323548

JSON: /api/v1/satellites/45139 · /tle

For live sub-satellite position, see the globe view (requires WebGL).

§ Visibility from observer

Set your observer location to see the next 7 days of passes ≥ 10°. The values pass through the URL so the page stays shareable.

No JS? Fill the form by hand. The geolocation button needs JavaScript.